Weather in Krasnobor

Russia / Komi Republic     65°17′38″N   53°17′23″E
temp.,
°C
wind,
m/s
gust,
m/s
humid.,
%
clouds,
%
prec.,
mm/h
press.,
hPa
HPBL,
m
7 march, sun
sun700:00−23wsw119899 0.1 100620
03:00−24e009995 0.1 100720
06:00−25e119990 0.1 100719
09:00−23e129785 0.1 1007150
12:00−20e119090 0.0 1007430
15:00−20ne118995 0.0 1008469
18:00−25ene129793 0.0 100820
21:00−27ne129850 0.0 100819
8 march, mon
mon800:00−29nne22994 0.0 100919
03:00−31nne229931 0.0 100919
06:00−32nne229982 0.0 100921
09:00−28nne249790 0.0 1010232
12:00−25nne2495100 0.0 1010401
15:00−24n3593100 0.1 1011498
18:00−30n389699 0.0 1012202
21:00−34n249662 0.0 101388
9 march, tue
tue900:00−36n23970 0.0 101329
03:00−36nnw22970 0.0 101426
06:00−36nw229863 0.0 101438
09:00−31wnw249880 0.0 1015176
12:00−26wnw259599 0.0 1016351
15:00−24wnw3594100 0.0 1016464
18:00−28w239997 0.0 101630
21:00−30w239863 0.0 101735
10 march, wed
wed1000:00−29wsw249989 0.0 101699
03:00−25w389794 0.1 1015285
06:00−24w3896100 0.0 1014307
09:00−22wsw4896100 0.1 1012305
12:00−17wnw4894100 0.3 1010521
15:00−14wnw3793100 0.7 1010425
18:00−14wnw2295100 0.1 100926
21:00−13ssw2297100 0.4 100867
11 march, thu
thu1100:00−12s1297100 0.9 100733
03:00−9wnw21197100 2.3 1008501
06:00−9wnw51388100 0.2 1008684
09:00−12wnw51286100 0.2 1009553
12:00−12wnw5118784 0.0 1009525
15:00−11wnw5118674 0.0 1009745
18:00−13w31290100 0.0 1010741
21:00−13w31290100 0.0 1010764